When you browse on this site, cookies collect data to enhance your experience and personalize the content and advertising you see.
Visit our Privacy Policy to learn more. By continuing to use the site, you agree to this use of cookies and data.
  • In Lithuania
  • List of Countries
  • For 7 days
  • Water Temperature
  • Satellite Maps
  • Weather Map
  • Weather Widgets
  • user-avatar
    Login

    Hourly Weather Nizhnepodpolnyy

    Today, 20 April, Saturday

    Time Temperature Precipitation Wind Pressure Humidity
    00:00 +4°C° 0 mm 4 mps 768 mmHg 54%
    01:00 +3°C° 0 mm 4 mps 768 mmHg 55%
    02:00 +3°C° 0 mm 4 mps 768 mmHg 56%
    03:00 +2°C° 0 mm 3 mps 767 mmHg 57%
    04:00 +1°C° 0 mm 4 mps 767 mmHg 57%
    05:00 +1°C° 0 mm 4 mps 768 mmHg 57%
    06:00 +1°C° 0 mm 4 mps 768 mmHg 57%
    07:00 +3°C° 0 mm 4 mps 768 mmHg 51%
    08:00 +5°C° 0 mm 5 mps 768 mmHg 45%
    09:00 +7°C° 0 mm 6 mps 768 mmHg 38%
    10:00 +8°C° 0 mm 6 mps 768 mmHg 36%
    11:00 +9°C° 0 mm 6 mps 768 mmHg 34%
    12:00 +10°C° 0 mm 6 mps 768 mmHg 32%
    13:00 +11°C° 0 mm 6 mps 767 mmHg 33%
    14:00 +11°C° 0 mm 6 mps 767 mmHg 33%
    15:00 +13°C° 0 mm 6 mps 767 mmHg 34%
    16:00 +12°C° 0 mm 5 mps 767 mmHg 37%
    17:00 +12°C° 0 mm 4 mps 767 mmHg 40%
    18:00 +11°C° 0 mm 4 mps 767 mmHg 43%
    19:00 +10°C° 0 mm 4 mps 767 mmHg 46%
    20:00 +8°C° 0 mm 4 mps 768 mmHg 48%
    21:00 +7°C° 0 mm 4 mps 768 mmHg 51%
    22:00 +7°C° 0 mm 3 mps 768 mmHg 52%
    23:00 +7°C° 0 mm 3 mps 768 mmHg 53%

    Tomorrow, 21 April, Sunday

    Time Temperature Precipitation Wind Pressure Humidity
    00:00 +5°C° 0 mm 3 mps 768 mmHg 54%
    01:00 +5°C° 0 mm 3 mps 768 mmHg 54%
    02:00 +4°C° 0 mm 3 mps 768 mmHg 55%
    03:00 +4°C° 0 mm 3 mps 768 mmHg 56%
    04:00 +4°C° 0 mm 3 mps 768 mmHg 57%
    05:00 +3°C° 0 mm 3 mps 768 mmHg 58%
    06:00 +3°C° 0 mm 3 mps 768 mmHg 59%
    07:00 +5°C° 0 mm 4 mps 768 mmHg 54%
    08:00 +7°C° 0 mm 4 mps 768 mmHg 49%
    09:00 +9°C° 0 mm 5 mps 768 mmHg 44%
    10:00 +10°C° 0 mm 5 mps 768 mmHg 40%
    11:00 +13°C° 0 mm 6 mps 768 mmHg 37%
    12:00 +14°C° 0 mm 6 mps 768 mmHg 33%
    13:00 +14°C° 0 mm 6 mps 767 mmHg 33%
    14:00 +14°C° 0 mm 6 mps 767 mmHg 34%
    15:00 +15°C° 0 mm 6 mps 767 mmHg 34%
    16:00 +14°C° 0 mm 5 mps 767 mmHg 37%
    17:00 +14°C° 0 mm 5 mps 767 mmHg 41%
    18:00 +13°C° 0 mm 4 mps 767 mmHg 44%
    19:00 +12°C° 0 mm 4 mps 767 mmHg 46%
    20:00 +11°C° 0 mm 4 mps 767 mmHg 48%
    21:00 +10°C° 0 mm 4 mps 768 mmHg 49%
    22:00 +8°C° 0 mm 4 mps 768 mmHg 50%
    23:00 +7°C° 0 mm 4 mps 768 mmHg 50%

    Day after tomorrow, 22 April, Monday

    Time Temperature Precipitation Wind Pressure Humidity
    00:00 +7°C° 0 mm 4 mps 768 mmHg 51%
    01:00 +6°C° 0 mm 4 mps 768 mmHg 52%
    02:00 +6°C° 0 mm 4 mps 768 mmHg 54%
    03:00 +5°C° 0 mm 4 mps 768 mmHg 55%
    04:00 +5°C° 0 mm 4 mps 768 mmHg 57%
    05:00 +5°C° 0 mm 4 mps 768 mmHg 58%
    06:00 +5°C° 0 mm 4 mps 768 mmHg 60%
    07:00 +6°C° 0 mm 4 mps 768 mmHg 56%
    08:00 +8°C° 0 mm 4 mps 769 mmHg 52%
    09:00 +10°C° 0 mm 5 mps 769 mmHg 48%
    10:00 +12°C° 0 mm 5 mps 769 mmHg 43%
    11:00 +14°C° 0 mm 5 mps 768 mmHg 39%
    12:00 +15°C° 0 mm 5 mps 768 mmHg 34%
    13:00 +15°C° 0 mm 5 mps 768 mmHg 34%
    14:00 +15°C° 0 mm 5 mps 768 mmHg 34%
    15:00 +16°C° 0 mm 5 mps 768 mmHg 34%
    16:00 +15°C° 0 mm 5 mps 768 mmHg 38%
    17:00 +15°C° 0 mm 4 mps 768 mmHg 41%
    18:00 +14°C° 0 mm 4 mps 768 mmHg 44%
    19:00 +13°C° 0 mm 4 mps 769 mmHg 46%
    20:00 +12°C° 0 mm 4 mps 769 mmHg 48%
    21:00 +10°C° 0 mm 3 mps 769 mmHg 50%
    22:00 +10°C° 0 mm 3 mps 769 mmHg 51%
    23:00 +9°C° 0 mm 3 mps 770 mmHg 52%

    23 April, Tuesday

    Time Temperature Precipitation Wind Pressure Humidity
    00:00 +8°C° 0 mm 2 mps 770 mmHg 53%
    01:00 +8°C° 0 mm 2 mps 770 mmHg 54%
    02:00 +8°C° 0 mm 2 mps 770 mmHg 54%
    03:00 +7°C° 0 mm 2 mps 770 mmHg 55%
    04:00 +7°C° 0 mm 2 mps 770 mmHg 56%
    05:00 +7°C° 0 mm 2 mps 771 mmHg 58%
    06:00 +7°C° 0 mm 2 mps 771 mmHg 59%
    07:00 +9°C° 0 mm 2 mps 771 mmHg 54%
    08:00 +12°C° 0 mm 2 mps 771 mmHg 48%
    09:00 +14°C° 0 mm 2 mps 771 mmHg 43%
    10:00 +15°C° 0 mm 2 mps 771 mmHg 40%
    11:00 +15°C° 0 mm 2 mps 771 mmHg 37%
    12:00 +16°C° 0 mm 2 mps 771 mmHg 34%
    13:00 +16°C° 0 mm 2 mps 771 mmHg 35%
    14:00 +17°C° 0 mm 2 mps 771 mmHg 36%
    15:00 +18°C° 0 mm 1 mps 771 mmHg 36%
    16:00 +16°C° 0 mm 1 mps 771 mmHg 39%
    17:00 +16°C° 0 mm 1 mps 771 mmHg 42%
    18:00 +16°C° 0 mm 1 mps 771 mmHg 45%
    19:00 +15°C° 0 mm 2 mps 771 mmHg 47%
    20:00 +14°C° 0 mm 2 mps 772 mmHg 49%
    21:00 +14°C° 0 mm 2 mps 772 mmHg 51%
    22:00 +13°C° 0 mm 2 mps 772 mmHg 54%
    23:00 +12°C° 0 mm 2 mps 772 mmHg 56%

    24 April, Wednesday

    Time Temperature Precipitation Wind Pressure Humidity
    00:00 +11°C° 0 mm 1 mps 772 mmHg 59%
    01:00 +11°C° 0 mm 1 mps 772 mmHg 59%
    02:00 +10°C° 0 mm 1 mps 772 mmHg 60%
    03:00 +9°C° 0 mm 0 mps 772 mmHg 61%
    04:00 +10°C° 0 mm 1 mps 772 mmHg 61%
    05:00 +9°C° 0 mm 1 mps 772 mmHg 62%
    06:00 +9°C° 0 mm 1 mps 772 mmHg 63%
    07:00 +10°C° 0 mm 2 mps 772 mmHg 59%
    08:00 +13°C° 0 mm 2 mps 772 mmHg 54%
    09:00 +15°C° 0 mm 2 mps 772 mmHg 49%
    10:00 +16°C° 0 mm 2 mps 772 mmHg 45%
    11:00 +18°C° 0 mm 3 mps 771 mmHg 41%
    12:00 +19°C° 0 mm 3 mps 771 mmHg 37%
    13:00 +19°C° 0 mm 3 mps 771 mmHg 37%
    14:00 +20°C° 0 mm 3 mps 770 mmHg 37%
    15:00 +20°C° 0 mm 3 mps 770 mmHg 37%
    16:00 +20°C° 0 mm 3 mps 770 mmHg 42%
    17:00 +19°C° 0 mm 2 mps 770 mmHg 46%
    18:00 +18°C° 0 mm 2 mps 770 mmHg 50%
    19:00 +18°C° 0 mm 2 mps 770 mmHg 52%
    20:00 +17°C° 0 mm 2 mps 770 mmHg 53%
    21:00 +17°C° 0 mm 2 mps 770 mmHg 54%
    22:00 +16°C° 0 mm 2 mps 770 mmHg 58%
    23:00 +15°C° 0 mm 2 mps 770 mmHg 62%

    25 April, Thursday

    Time Temperature Precipitation Wind Pressure Humidity
    00:00 +14°C° 0 mm 2 mps 770 mmHg 65%
    01:00 +14°C° 0 mm 2 mps 770 mmHg 66%
    02:00 +14°C° 0 mm 2 mps 770 mmHg 67%
    03:00 +13°C° 0 mm 2 mps 770 mmHg 69%
    04:00 +13°C° 0 mm 2 mps 770 mmHg 69%
    05:00 +13°C° 0 mm 2 mps 770 mmHg 70%
    06:00 +13°C° 0 mm 2 mps 770 mmHg 71%
    07:00 +15°C° 0 mm 2 mps 770 mmHg 66%
    08:00 +17°C° 0 mm 3 mps 770 mmHg 60%
    09:00 +19°C° 0 mm 3 mps 770 mmHg 54%
    10:00 +20°C° 0 mm 3 mps 770 mmHg 50%
    11:00 +22°C° 0 mm 3 mps 770 mmHg 45%
    12:00 +24°C° 0 mm 3 mps 770 mmHg 40%
    13:00 +24°C° 0 mm 3 mps 769 mmHg 39%
    14:00 +25°C° 0 mm 3 mps 769 mmHg 38%
    15:00 +25°C° 0 mm 3 mps 769 mmHg 37%
    16:00 +25°C° 0 mm 3 mps 769 mmHg 40%
    17:00 +24°C° 0 mm 2 mps 769 mmHg 43%
    18:00 +24°C° 0 mm 2 mps 768 mmHg 46%
    19:00 +21°C° 0 mm 2 mps 769 mmHg 50%
    20:00 +20°C° 0 mm 2 mps 769 mmHg 54%
    21:00 +19°C° 0 mm 1 mps 769 mmHg 58%
    22:00 +18°C° 0 mm 1 mps 769 mmHg 60%
    23:00 +18°C° 0 mm 1 mps 768 mmHg 62%
    Show more